Location: Emporia
(38.4040°N, 96.1810°W)
Time: 00:43:52
(UTC-06:00)

Amateur Radio Satellites - All Passes

Search period start: 10 February 2016 00:13
Search period end: 11 February 2016 00:13
Location: Emporia, 38.4040°N, 96.1810°W

Satellite Date Start Highest point End Downlink Frequencies (MHz)
Time Altitude Azimuth
BEESAT 10 Feb 00:21:17 00:23:04 12° 62° (ENE) 00:24:51 436.000
VELOX 1 10 Feb 00:25:06 00:27:16 13° 268° (W) 00:29:27 145.980
POLYITAN 1 10 Feb 00:41:09 00:44:37 25° 291° (WNW) 00:48:04 437.675
QB50P2 10 Feb 00:41:52 00:45:16 24° 291° (WNW) 00:48:39 145.880/145.840
BUGSAT 1 10 Feb 00:43:32 00:47:26 47° 287° (WNW) 00:51:17 437.445
CUSAT 1 10 Feb 00:46:17 00:52:25 25° 84° (E) 00:58:38 437.405
Cosmos 2491 10 Feb 00:47:41 00:52:22 15° 62° (ENE) 00:57:01 435.465 / 435.565
SPROUT 10 Feb 01:03:20 01:06:00 16° 267° (W) 01:08:42 437.525
Oscar 19 10 Feb 01:06:06 01:10:24 26° 96° (E) 01:14:39 437.125/150
SWISSCUBE 10 Feb 01:10:30 01:14:58 42° 71° (ENE) 01:19:27 437.505
TISAT 1 10 Feb 01:10:53 01:14:43 33° 262° (W) 01:18:34 437.305
POPSAT HIP 1 10 Feb 01:13:02 01:14:48 12° 295° (WNW) 01:16:33 437.405
NANOSAT C BR1 10 Feb 01:18:11 01:19:27 11° 296° (WNW) 01:20:42 145.865
DANDE 10 Feb 01:19:23 01:25:30 26° 83° (E) 01:32:05 436.750
DUCHIFAT 1 10 Feb 01:19:35 01:20:52 11° 296° (WNW) 01:22:08 145.980
BEESAT 3 10 Feb 01:36:08 01:39:22 23° 50° (NE) 01:42:34 437.485
Gurwin Techsat 1B 10 Feb 01:37:37 01:41:28 20° 93° (E) 01:45:18 435.225
YUBILEINY 10 Feb 01:39:37 01:42:35 12° 75° (ENE) 01:45:32 435.215
ITUPSAT 1 10 Feb 01:46:59 01:51:45 90° 255° (WSW) 01:56:34 437.325
PHONESAT 2.4 10 Feb 01:48:29 01:51:45 77° 164° (SSE) 01:55:02 2401.200-2431.200
BEESAT 10 Feb 01:55:29 02:00:13 72° 257° (WSW) 02:05:00 436.000
KKS-1 10 Feb 01:59:22 02:02:08 16° 65° (ENE) 02:04:55 437.445
BEESAT 2 10 Feb 02:00:18 02:03:44 27° 51° (NE) 02:07:08 435.950
ITAMSAT 1 10 Feb 02:15:09 02:19:16 23° 95° (E) 02:23:22 435.822/435.867
JAS-2 10 Feb 02:16:01 02:21:41 83° 103° (ESE) 02:26:54 435.910
CUSAT 1 10 Feb 02:26:09 02:34:01 69° 281° (W) 02:42:06 437.405
Cosmos 2491 10 Feb 02:41:51 02:50:38 81° 82° (E) 02:59:26 435.465 / 435.565
Oscar 19 10 Feb 02:45:09 02:49:43 34° 291° (WNW) 02:54:16 437.125/150
SWISSCUBE 10 Feb 02:49:38 02:52:55 18° 266° (W) 02:56:14 437.505
DANDE 10 Feb 03:00:07 03:07:42 66° 282° (WNW) 03:16:11 436.750
BEESAT 3 10 Feb 03:13:42 03:17:07 28° 247° (WSW) 03:20:28 437.485
Gurwin Techsat 1B 10 Feb 03:16:32 03:21:38 47° 289° (WNW) 03:26:42 435.225
STARS 10 Feb 03:16:34 03:20:54 60° 74° (ENE) 03:25:15 437.465
AO-7 10 Feb 03:16:44 03:23:44 29° 96° (E) 03:30:39 29.400- 29.500
PHONESAT 2.4 10 Feb 03:25:53 03:29:08 56° 359° (N) 03:32:22 2401.200-2431.200
MOZHAYETS 4 10 Feb 03:28:11 03:32:37 54° 74° (ENE) 03:37:05
YUBILEINY 10 Feb 03:28:59 03:37:42 74° 93° (E) 03:46:30 435.215
KKS-1 10 Feb 03:34:04 03:38:20 44° 260° (W) 03:42:38 437.445
BEESAT 2 10 Feb 03:38:16 03:41:31 24° 248° (WSW) 03:44:44 435.950
ITAMSAT 1 10 Feb 03:53:58 03:58:50 40° 290° (WNW) 04:03:41 435.822/435.867
AIST 2 10 Feb 03:56:01 04:00:01 46° 55° (NE) 04:03:58 435.215
JAS-2 10 Feb 04:03:48 04:05:49 12° 303° (WNW) 04:07:49 435.910
CUBESAT XI-V 10 Feb 04:11:06 04:13:57 16° 65° (ENE) 04:16:49 437.345
CUSAT 1 10 Feb 04:13:44 04:17:40 14° 299° (WNW) 04:21:36 437.405
SO-50 10 Feb 04:39:57 04:44:35 44° 115° (ESE) 04:49:17 436.795
Cosmos 2491 10 Feb 04:40:46 04:46:21 19° 281° (W) 04:51:57 435.465 / 435.565
DANDE 10 Feb 04:48:30 04:52:21 14° 302° (WNW) 04:56:20 436.750
HORYU 2 10 Feb 04:53:29 04:57:58 79° 104° (ESE) 05:02:25 437.375
Cosmos 2504 10 Feb 04:56:17 05:04:35 60° 91° (E) 05:13:16 435.465 / 435.565
STARS 10 Feb 04:56:28 04:57:38 11° 269° (W) 04:58:49 437.465
PHONESAT 2.4 10 Feb 05:03:14 05:06:31 87° 194° (SSW) 05:09:47 2401.200-2431.200
M-CUBED/EXP-1 PRIME 10 Feb 05:05:57 05:09:15 54° 290° (WNW) 05:12:47 437.505
MOZHAYETS 4 10 Feb 05:07:59 05:10:06 13° 269° (W) 05:12:14
AO-7 10 Feb 05:08:44 05:16:51 59° 293° (WNW) 05:24:55 29.400- 29.500
AUBIESAT-1 10 Feb 05:15:34 05:18:55 50° 290° (WNW) 05:22:28 437.475
YUBILEINY 10 Feb 05:28:51 05:35:21 23° 293° (WNW) 05:41:57 435.215
CUTE-I 10 Feb 05:34:19 05:37:30 16° 92° (E) 05:40:40 437.470
AIST 2 10 Feb 05:35:50 05:38:06 14° 251° (WSW) 05:40:21 435.215
CUBESAT XI-V 10 Feb 05:46:21 05:50:53 50° 261° (W) 05:55:29 437.345
Cubesat XI-IV 10 Feb 05:47:25 05:51:28 21° 94° (E) 05:55:29 437.490
BRITE-PL 10 Feb 06:15:01 06:18:13 18° 91° (E) 06:21:17 437.365/2234.400
LilacSat-2 10 Feb 06:18:36 06:22:03 33° 97° (E) 06:25:31 437.200
SO-50 10 Feb 06:21:15 06:25:16 24° 313° (NW) 06:29:18 436.795
STRAND 1 10 Feb 06:32:15 06:37:16 61° 73° (ENE) 06:42:20 437.568
PHONESAT 2.4 10 Feb 06:40:58 06:43:31 21° 211° (SSW) 06:46:04 2401.200-2431.200
Cosmos 2504 10 Feb 06:51:12 06:58:27 30° 290° (WNW) 07:05:58 435.465 / 435.565
DOVE 4 10 Feb 07:00:21 07:01:53 12° 91° (E) 07:03:24 437.250
AO-7 10 Feb 07:04:56 07:07:52 12° 314° (NW) 07:10:47 29.400- 29.500
HO-68 10 Feb 07:11:06 07:14:12 13° 89° (E) 07:17:16 435.675
CUTE-I 10 Feb 07:12:37 07:17:56 61° 287° (WNW) 07:23:11 437.470
PRISM 10 Feb 07:14:10 07:18:09 48° 73° (ENE) 07:22:12 437.425
GOMX 1 10 Feb 07:18:35 07:22:46 42° 98° (E) 07:26:45 467.674
O/OREOS (USA 219) 10 Feb 07:23:08 07:26:48 25° 102° (ESE) 07:30:29 437.305
Cubesat XI-IV 10 Feb 07:26:36 07:31:42 45° 290° (WNW) 07:36:48 437.490
CINEMA 3 10 Feb 07:51:36 07:54:01 15° 93° (E) 07:56:26 145.822/145.860
BRITE-PL 10 Feb 07:52:35 07:56:55 37° 290° (WNW) 08:00:58 437.365/2234.400
LilacSat-2 10 Feb 07:53:54 07:56:06 15° 292° (WNW) 07:58:17 437.200
COMPASS 1 10 Feb 07:54:30 07:55:22 11° 90° (E) 07:56:13 437.405
CUTE 1.7 + AOD 2 10 Feb 08:01:07 08:04:40 25° 95° (E) 08:08:13 437.475
SEEDS 10 Feb 08:07:06 08:10:24 22° 95° (E) 08:13:42 437.485
Cosmos 2499 10 Feb 08:11:00 08:13:09 11° 74° (ENE) 08:15:18 435.465 / 435.565
STRAND 1 10 Feb 08:14:08 08:16:50 14° 269° (W) 08:19:32 437.568
AAUSAT CUBESAT 2 10 Feb 08:20:58 08:23:55 18° 94° (E) 08:26:51 437.432
DOVE 4 10 Feb 08:35:51 08:39:56 48° 286° (WNW) 08:43:55 437.250
CANX-2 10 Feb 08:45:41 08:50:00 85° 282° (WNW) 08:54:18 2200.000
ZACube-1 10 Feb 08:50:22 08:52:02 12° 92° (E) 08:53:41 437.345
PRISM 10 Feb 08:51:58 08:53:45 12° 268° (W) 08:55:32 437.425
GONETS M04 10 Feb 08:54:25 09:02:52 61° 91° (E) 09:11:24
HO-68 10 Feb 08:55:33 09:02:48 85° 106° (ESE) 09:10:00 435.675
GOMX 1 10 Feb 08:57:54 09:00:28 15° 295° (WNW) 09:02:56 467.674
FUNcube-1 10 Feb 08:58:36 09:00:58 14° 93° (E) 09:03:20 145.935
ANTELSAT 10 Feb 08:58:39 09:01:05 15° 66° (ENE) 09:03:33 437.575/2403.000
O/OREOS (USA 219) 10 Feb 09:02:13 09:06:04 28° 299° (WNW) 09:09:58 437.305
TIGRISAT 10 Feb 09:05:03 09:07:48 17° 67° (ENE) 09:10:33 435.000
JUGNU 10 Feb 09:21:52 09:23:41 11° 176° (S) 09:25:30 437.505
COMPASS 1 10 Feb 09:27:07 09:31:16 58° 286° (WNW) 09:35:25 437.405
CINEMA 3 10 Feb 09:27:29 09:31:20 38° 287° (WNW) 09:35:12 145.822/145.860
Oscar 11 10 Feb 09:29:37 09:33:48 46° 99° (E) 09:37:59 145.826/435.025
UWE-3 10 Feb 09:31:17 09:35:25 54° 100° (E) 09:39:37 435.000/436.395/437.385
CUBEBUG 2 10 Feb 09:31:20 09:35:32 78° 102° (ESE) 09:39:49 437.445
DELFI C3 10 Feb 09:31:30 09:34:51 24° 96° (E) 09:38:10 145.870
CUTE 1.7 + AOD 2 10 Feb 09:36:53 09:40:26 26° 290° (WNW) 09:43:58 437.475
AO-85 10 Feb 09:40:48 09:45:21 30° 111° (ESE) 09:50:03 145.980
SEEDS 10 Feb 09:42:25 09:46:06 29° 289° (WNW) 09:49:47 437.485
UNISAT 6 10 Feb 09:48:10 09:52:23 54° 74° (ENE) 09:56:33 437.425
AAUSAT CUBESAT 2 10 Feb 09:55:42 09:59:29 33° 288° (WNW) 10:03:15 437.432
Cosmos 2499 10 Feb 09:55:55 10:04:28 67° 92° (E) 10:13:17 435.465 / 435.565
POLYITAN 1 10 Feb 09:57:36 10:00:13 16° 66° (ENE) 10:02:51 437.675
QB50P2 10 Feb 09:58:05 10:00:50 17° 67° (ENE) 10:03:34 145.880/145.840
PCSat 10 Feb 09:58:28 10:02:40 23° 107° (ESE) 10:06:54 145.827
RS-15 10 Feb 10:15:16 10:23:59 28° 102° (ESE) 10:32:58 29.354- 29.394
ZACube-1 10 Feb 10:24:29 10:28:35 51° 286° (WNW) 10:32:45 437.345
POPSAT HIP 1 10 Feb 10:26:31 10:30:18 32° 71° (ENE) 10:34:05 437.405
NANOSAT C BR1 10 Feb 10:30:50 10:34:42 35° 72° (ENE) 10:38:33 145.865
DUCHIFAT 1 10 Feb 10:32:04 10:35:55 35° 72° (ENE) 10:39:45 145.980
ANTELSAT 10 Feb 10:33:19 10:37:27 44° 261° (W) 10:41:34 437.575/2403.000
FUNcube-1 10 Feb 10:33:24 10:37:24 42° 287° (WNW) 10:41:27 145.935
QB50P1 10 Feb 10:38:48 10:42:51 46° 73° (ENE) 10:46:54 145.935-145.965
HUMSAT D 10 Feb 10:39:17 10:43:27 64° 102° (ESE) 10:47:37 437.325/437.525
TIGRISAT 10 Feb 10:40:09 10:44:12 39° 262° (W) 10:48:13 435.000
VELOX 1 10 Feb 10:40:44 10:41:38 11° 91° (E) 10:42:32 145.980
HO-68 10 Feb 10:45:01 10:49:36 18° 303° (WNW) 10:54:11 435.675
GONETS M04 10 Feb 10:53:06 11:00:13 28° 291° (WNW) 11:07:24
AISAT 10 Feb 10:55:40 10:58:37 17° 94° (E) 11:01:32 437.250
SRMSAT 10 Feb 10:59:17 11:00:33 11° 173° (S) 11:01:49 437.500
AIST 1 10 Feb 10:59:25 11:03:48 81° 275° (W) 11:08:14
UKube-1 10 Feb 11:05:44 11:08:50 19° 94° (E) 11:11:56 .
DELFI C3 10 Feb 11:06:25 11:09:39 23° 290° (WNW) 11:12:52 145.870
Oscar 11 10 Feb 11:07:03 11:09:32 15° 294° (WNW) 11:12:02 145.826/435.025
UWE-3 10 Feb 11:09:42 11:11:27 12° 295° (WNW) 11:13:12 435.000/436.395/437.385
JUGNU 10 Feb 11:10:17 11:11:46 11° 186° (S) 11:13:16 437.505
50 SAT 10 Feb 11:13:00 11:16:25 31° 98° (E) 11:19:49 437.505
CUBEBUG 1 10 Feb 11:13:35 11:17:00 22° 95° (E) 11:20:22 437.445
DX 1 10 Feb 11:18:00 11:21:54 31° 98° (E) 11:25:45 434.975-435.025
ESTCUBE 1 10 Feb 11:18:29 11:22:40 35° 98° (E) 11:26:49 437.505/2401.250
AO-85 10 Feb 11:20:43 11:25:45 40° 308° (NW) 11:30:55 145.980
UNISAT 6 10 Feb 11:27:55 11:29:24 12° 269° (W) 11:30:53 437.425
BUGSAT 1 10 Feb 11:31:11 11:35:25 89° 263° (W) 11:39:36 437.445
POLYITAN 1 10 Feb 11:31:43 11:35:42 40° 261° (W) 11:39:42 437.675
QB50P2 10 Feb 11:32:23 11:36:20 38° 261° (W) 11:40:18 145.880/145.840
PCSat 10 Feb 11:40:35 11:45:45 45° 303° (WNW) 11:50:57 145.827
Cosmos 2499 10 Feb 11:51:14 11:58:16 26° 292° (WNW) 12:05:27 435.465 / 435.565
POPSAT HIP 1 10 Feb 12:03:08 12:06:08 19° 266° (W) 12:09:10 437.405
DANDE 10 Feb 12:03:39 12:07:28 15° 59° (ENE) 12:10:49 436.750
NANOSAT C BR1 10 Feb 12:07:45 12:10:32 17° 266° (W) 12:13:20 145.865
DUCHIFAT 1 10 Feb 12:08:54 12:11:43 17° 266° (W) 12:14:32 145.980
VELOX 1 10 Feb 12:14:08 12:18:31 62° 285° (WNW) 12:22:50 145.980
QB50P1 10 Feb 12:16:47 12:18:51 13° 268° (W) 12:20:57 145.935-145.965
HUMSAT D 10 Feb 12:17:48 12:18:32 10° 296° (WNW) 12:19:17 437.325/437.525
Oscar 19 10 Feb 12:21:21 12:25:59 34° 69° (ENE) 12:30:37 437.125/150
RS-15 10 Feb 12:24:01 12:35:07 75° 303° (WNW) 12:46:54 29.354- 29.394
JAS-2 10 Feb 12:24:50 12:31:36 36° 68° (ENE) 12:37:52 435.910
AISAT 10 Feb 12:31:09 12:35:13 38° 289° (WNW) 12:39:17 437.250
UKube-1 10 Feb 12:41:04 12:44:57 33° 290° (WNW) 12:48:50 .
SRMSAT 10 Feb 12:46:47 12:48:48 12° 183° (S) 12:50:49 437.500
50 SAT 10 Feb 12:47:46 12:50:11 16° 292° (WNW) 12:52:37 437.505
SPROUT 10 Feb 12:49:02 12:53:19 84° 281° (W) 12:57:34 437.525
CUBEBUG 1 10 Feb 12:49:29 12:53:17 29° 290° (WNW) 12:57:01 437.445
DX 1 10 Feb 12:54:36 12:57:53 21° 293° (WNW) 13:01:09 434.975-435.025
ESTCUBE 1 10 Feb 12:55:51 12:59:14 21° 293° (WNW) 13:02:35 437.505/2401.250
TISAT 1 10 Feb 12:56:06 13:00:01 38° 98° (E) 13:03:55 437.305
Gurwin Techsat 1B 10 Feb 12:57:07 13:01:34 28° 67° (ENE) 13:06:02 435.225
CUSAT 1 10 Feb 13:07:06 13:12:51 89° 82° (E) 13:17:05 437.405
SO-50 10 Feb 13:13:09 13:17:19 28° 49° (NE) 13:21:21 436.795
SWISSCUBE 10 Feb 13:14:14 13:16:04 12° 91° (E) 13:17:53 437.505
ITAMSAT 1 10 Feb 13:31:35 13:36:05 31° 68° (ENE) 13:40:37 435.822/435.867
YUBILEINY 10 Feb 13:41:33 13:49:24 34° 72° (ENE) 13:57:10 435.215
DANDE 10 Feb 13:44:48 13:51:43 79° 263° (W) 13:56:50 436.750
Cosmos 2491 10 Feb 13:48:29 13:53:44 18° 78° (ENE) 13:58:58 435.465 / 435.565
ITUPSAT 1 10 Feb 13:49:32 13:53:33 26° 96° (E) 13:57:34 437.325
BEESAT 10 Feb 13:57:23 14:01:40 32° 97° (E) 14:05:57 436.000
Oscar 19 10 Feb 14:00:58 14:05:18 27° 264° (W) 14:09:39 437.125/150
JAS-2 10 Feb 14:09:08 14:16:25 45° 262° (W) 14:23:11 435.910
AO-7 10 Feb 14:14:04 14:21:29 37° 61° (ENE) 14:28:53 29.400- 29.500
ISS 10 Feb 14:25:23 14:26:34 12° 128° (SE) 14:27:44 145.825
TISAT 1 10 Feb 14:32:46 14:35:22 16° 294° (WNW) 14:37:57 437.305
Gurwin Techsat 1B 10 Feb 14:36:34 14:41:21 34° 263° (W) 14:46:11 435.225
RS-15 10 Feb 14:40:55 14:50:00 26° 331° (NNW) 14:59:29 29.354- 29.394
SWISSCUBE 10 Feb 14:49:30 14:54:16 65° 286° (WNW) 14:59:01 437.505
Cosmos 2504 10 Feb 14:52:40 14:58:32 20° 64° (ENE) 15:04:08 435.465 / 435.565
SO-50 10 Feb 14:53:33 14:57:49 34° 247° (WSW) 15:01:58 436.795
STARS 10 Feb 15:09:37 15:11:19 12° 92° (E) 15:13:01 437.465
ITAMSAT 1 10 Feb 15:10:59 15:15:29 30° 264° (W) 15:20:02 435.822/435.867
MOZHAYETS 4 10 Feb 15:26:05 15:28:41 15° 92° (E) 15:31:16
KKS-1 10 Feb 15:26:28 15:30:34 37° 98° (E) 15:34:40 437.445
ITUPSAT 1 10 Feb 15:27:09 15:31:21 31° 291° (WNW) 15:35:33 437.325
BEESAT 10 Feb 15:35:25 15:39:18 25° 293° (WNW) 15:43:11 436.000
YUBILEINY 10 Feb 15:38:00 15:46:25 50° 271° (W) 15:54:46 435.215
Cosmos 2491 10 Feb 15:40:38 15:49:22 85° 277° (W) 15:58:07 435.465 / 435.565
HORYU 2 10 Feb 15:49:55 15:54:15 59° 74° (ENE) 15:58:37 437.375
M-CUBED/EXP-1 PRIME 10 Feb 15:51:54 15:55:32 53° 254° (WSW) 15:58:55 437.505
ISS 10 Feb 15:59:23 16:02:37 64° 324° (NW) 16:05:50 145.825
AUBIESAT-1 10 Feb 16:01:05 16:04:40 50° 255° (WSW) 16:08:02 437.475
AO-7 10 Feb 16:05:57 16:13:57 50° 258° (WSW) 16:22:03 29.400- 29.500
STARS 10 Feb 16:43:44 16:48:00 54° 286° (WNW) 16:52:15 437.465
Cosmos 2504 10 Feb 16:44:24 16:53:02 82° 265° (W) 17:01:00 435.465 / 435.565
CUTE-I 10 Feb 16:54:27 16:58:34 23° 65° (ENE) 17:02:43 437.470
LilacSat-2 10 Feb 17:00:33 17:02:42 15° 67° (ENE) 17:04:51 437.200
RS-15 10 Feb 17:01:01 17:08:34 18° 8° (N) 17:16:16 29.354- 29.394
MOZHAYETS 4 10 Feb 17:01:37 17:06:06 50° 287° (WNW) 17:10:35
BEESAT 3 10 Feb 17:02:42 17:06:38 67° 118° (ESE) 17:10:36 437.485
KKS-1 10 Feb 17:03:46 17:06:52 19° 294° (WNW) 17:09:58 437.445
Cubesat XI-IV 10 Feb 17:07:51 17:12:26 31° 68° (ENE) 17:17:04 437.490
BRITE-PL 10 Feb 17:23:00 17:27:28 24° 67° (ENE) 17:31:51 437.365/2234.400
BEESAT 2 10 Feb 17:28:16 17:32:16 82° 120° (ESE) 17:36:18 435.950
HORYU 2 10 Feb 17:29:50 17:31:11 11° 269° (W) 17:32:32 437.375
O/OREOS (USA 219) 10 Feb 17:33:45 17:38:04 39° 64° (ENE) 17:42:22 437.305
ISS 10 Feb 17:37:54 17:39:35 13° 341° (NNW) 17:41:16 145.825
Cosmos 2491 10 Feb 17:42:38 17:47:34 16° 297° (WNW) 17:52:31 435.465 / 435.565
CUBESAT XI-V 10 Feb 17:44:23 17:48:54 44° 98° (E) 17:53:21 437.345
AIST 2 10 Feb 17:54:02 17:56:12 14° 109° (ESE) 17:58:22 435.215
DOVE 4 10 Feb 18:03:53 18:06:33 15° 65° (ENE) 18:09:09 437.250
AO-85 10 Feb 18:14:32 18:18:18 20° 43° (NE) 18:21:51 145.980
GOMX 1 10 Feb 18:23:58 18:29:06 45° 73° (ENE) 18:34:02 467.674
LilacSat-2 10 Feb 18:33:13 18:36:43 35° 262° (W) 18:40:14 437.200
CUTE-I 10 Feb 18:33:18 18:38:20 42° 261° (W) 18:43:23 437.470
Cosmos 2504 10 Feb 18:41:05 18:44:48 14° 285° (WNW) 18:48:27 435.465 / 435.565
BEESAT 3 10 Feb 18:43:01 18:44:49 13° 316° (NW) 18:46:38 437.485
STRAND 1 10 Feb 18:44:56 18:49:01 23° 95° (E) 18:53:05 437.568
PCSat 10 Feb 18:47:36 18:51:02 17° 46° (NE) 18:54:26 145.827
Cubesat XI-IV 10 Feb 18:47:45 18:52:25 31° 263° (W) 18:57:08 437.490
CINEMA 3 10 Feb 18:52:27 18:54:48 14° 66° (ENE) 18:57:06 145.822/145.860
CUTE 1.7 + AOD 2 10 Feb 18:53:28 18:55:56 15° 66° (ENE) 18:58:25 437.475
SEEDS 10 Feb 18:58:54 19:00:51 13° 65° (ENE) 19:02:48 437.485
BRITE-PL 10 Feb 19:00:09 19:05:36 46° 262° (W) 19:10:58 437.365/2234.400
GONETS M04 10 Feb 19:07:01 19:14:16 28° 69° (ENE) 19:21:30
BEESAT 2 10 Feb 19:09:31 19:10:43 11° 317° (NW) 19:11:54 435.950
AAUSAT CUBESAT 2 10 Feb 19:12:08 19:13:02 11° 64° (ENE) 19:13:57 437.432
O/OREOS (USA 219) 10 Feb 19:13:59 19:17:08 19° 260° (W) 19:20:18 437.305
RS-15 10 Feb 19:15:04 19:26:06 38° 41° (NE) 19:37:15 29.354- 29.394
HO-68 10 Feb 19:22:07 19:29:03 55° 69° (ENE) 19:36:01 435.675
CUBESAT XI-V 10 Feb 19:22:46 19:25:54 18° 294° (WNW) 19:29:02 437.345
AIST 2 10 Feb 19:30:12 19:34:15 49° 304° (NW) 19:38:20 435.215
CANX-2 10 Feb 19:36:48 19:40:53 54° 75° (ENE) 19:45:01 2200.000
DOVE 4 10 Feb 19:38:42 19:43:47 64° 259° (W) 19:48:37 437.250
Cosmos 2499 10 Feb 19:51:07 19:57:08 21° 65° (ENE) 20:02:50 435.465 / 435.565
AO-85 10 Feb 19:54:18 19:59:18 60° 244° (WSW) 20:03:51 145.980
GOMX 1 10 Feb 20:03:12 20:07:16 22° 266° (W) 20:11:15 467.674
COMPASS 1 10 Feb 20:16:04 20:20:12 76° 78° (ENE) 20:24:23 437.405
DELFI C3 10 Feb 20:18:02 20:19:45 13° 65° (ENE) 20:21:28 145.870
Oscar 11 10 Feb 20:23:06 20:26:48 29° 70° (ENE) 20:30:32 145.826/435.025
STRAND 1 10 Feb 20:23:30 20:28:17 39° 290° (WNW) 20:33:01 437.568
CINEMA 3 10 Feb 20:26:59 20:31:32 54° 260° (W) 20:35:55 145.822/145.860
UWE-3 10 Feb 20:27:01 20:30:54 35° 72° (ENE) 20:34:44 435.000/436.395/437.385
CUTE 1.7 + AOD 2 10 Feb 20:27:26 20:31:25 42° 262° (W) 20:35:26 437.475
CUBEBUG 2 10 Feb 20:27:54 20:32:07 52° 74° (ENE) 20:36:13 437.445
PCSat 10 Feb 20:29:37 20:35:04 78° 244° (WSW) 20:40:28 145.827
SEEDS 10 Feb 20:32:04 20:36:06 49° 261° (W) 20:40:12 437.485
PRISM 10 Feb 20:32:24 20:36:36 82° 285° (WNW) 20:40:45 437.425
AAUSAT CUBESAT 2 10 Feb 20:43:55 20:47:59 61° 259° (W) 20:52:07 437.432
ISS 10 Feb 20:52:49 20:54:50 15° 22° (NNE) 20:56:51 145.825
GONETS M04 10 Feb 21:02:59 21:11:36 62° 269° (W) 21:20:15
AIST 1 10 Feb 21:08:49 21:12:08 21° 74° (ENE) 21:15:24
HO-68 10 Feb 21:11:12 21:17:02 27° 265° (W) 21:22:55 435.675
CANX-2 10 Feb 21:15:50 21:17:04 11° 269° (W) 21:18:18 2200.000
ZACube-1 10 Feb 21:18:32 21:22:46 82° 256° (WSW) 21:26:57 437.345
FUNcube-1 10 Feb 21:27:08 21:31:19 67° 258° (WSW) 21:35:28 145.935
RS-15 10 Feb 21:27:30 21:39:39 74° 245° (WSW) 21:51:52 29.354- 29.394
HUMSAT D 10 Feb 21:29:23 21:33:05 35° 72° (ENE) 21:36:48 437.325/437.525
Cosmos 2499 10 Feb 21:42:52 21:51:12 73° 267° (W) 21:58:51 435.465 / 435.565
UNISAT 6 10 Feb 21:43:01 21:44:53 12° 92° (E) 21:46:45 437.425
DELFI C3 10 Feb 21:50:25 21:54:14 46° 261° (W) 21:58:06 145.870
AISAT 10 Feb 21:52:32 21:54:55 14° 64° (ENE) 21:57:18 437.250
50 SAT 10 Feb 21:53:27 21:55:12 13° 66° (ENE) 21:56:57 437.505
Oscar 11 10 Feb 21:59:37 22:02:56 22° 265° (W) 22:06:16 145.826/435.025
UKube-1 10 Feb 21:59:48 22:02:11 15° 65° (ENE) 22:04:35 .
UWE-3 10 Feb 22:04:41 22:07:28 17° 266° (W) 22:10:15 435.000/436.395/437.385
CUBEBUG 2 10 Feb 22:07:23 22:09:01 12° 268° (W) 22:10:36 437.445
CUBEBUG 1 10 Feb 22:08:47 22:11:36 17° 66° (ENE) 22:14:25 437.445
DX 1 10 Feb 22:12:22 22:15:51 24° 68° (ENE) 22:19:21 434.975-435.025
ESTCUBE 1 10 Feb 22:16:44 22:20:34 28° 69° (ENE) 22:24:25 437.505/2401.250
ANTELSAT 10 Feb 22:26:08 22:30:13 39° 98° (E) 22:34:23 437.575/2403.000
ISS 10 Feb 22:28:27 22:31:41 87° 35° (NE) 22:34:55 145.825
TIGRISAT 10 Feb 22:32:37 22:36:46 43° 99° (E) 22:40:59 435.000
AIST 1 10 Feb 22:46:00 22:49:43 28° 270° (W) 22:53:24
HUMSAT D 10 Feb 23:06:17 23:08:50 16° 267° (W) 23:11:25 437.325/437.525
VELOX 1 10 Feb 23:09:33 23:14:01 86° 257° (WSW) 23:18:31 145.980
BUGSAT 1 10 Feb 23:16:14 23:18:21 14° 93° (E) 23:20:26 437.445
UNISAT 6 10 Feb 23:17:38 23:21:52 53° 286° (WNW) 23:26:10 437.425
POLYITAN 1 10 Feb 23:18:10 23:21:59 34° 97° (E) 23:25:49 437.675
QB50P2 10 Feb 23:18:43 23:22:37 35° 98° (E) 23:26:29 145.880/145.840
PHONESAT 2.4 10 Feb 23:19:14 23:20:20 11° 144° (SE) 23:21:25 2401.200-2431.200
50 SAT 10 Feb 23:25:25 23:28:52 37° 262° (W) 23:32:21 437.505
AISAT 10 Feb 23:26:35 23:30:57 52° 260° (W) 23:35:20 437.250
UKube-1 10 Feb 23:33:38 23:37:50 48° 260° (W) 23:42:02 .
Cosmos 2499 10 Feb 23:40:36 23:42:33 11° 286° (WNW) 23:44:29 435.465 / 435.565
SPROUT 10 Feb 23:40:59 23:45:12 59° 75° (ENE) 23:49:27 437.525
CUBEBUG 1 10 Feb 23:43:18 23:47:32 43° 261° (W) 23:51:46 437.445
RS-15 10 Feb 23:43:44 23:49:58 16° 264° (W) 23:56:14 29.354- 29.394
TISAT 1 10 Feb 23:46:43 23:50:09 25° 69° (ENE) 23:53:35 437.305
POPSAT HIP 1 10 Feb 23:47:58 23:52:11 76° 103° (ESE) 23:56:21 437.405
DX 1 10 Feb 23:48:06 23:51:54 28° 263° (W) 23:55:43 434.975-435.025
NANOSAT C BR1 10 Feb 23:51:59 23:56:11 84° 100° (E) 00:00:23 145.865
DUCHIFAT 1 10 Feb 23:52:55 23:57:07 82° 102° (ESE) 00:01:18 145.980
ESTCUBE 1 10 Feb 23:53:33 23:57:18 26° 264° (W) 00:01:06 437.505/2401.250
QB50P1 11 Feb 00:00:32 00:04:44 75° 284° (WNW) 00:08:54 145.935-145.965
ANTELSAT 11 Feb 00:03:44 00:06:40 18° 293° (WNW) 00:09:37 437.575/2403.000
